Location: Ocean City
(38.3360°N, 75.0850°W)
Time: 12:46:30
(UTC-04:00)

STARS - Pass Details

Date: 23 May 2019
Orbit: 625 x 640 km, 98.3° (Epoch: 16 June)

Event Time Altitude Azimuth Distance (km) Brightness Sun altitude
Rises 21:41:08 0° 357° (N) 2,945 ? -15.2°
Reaches altitude 10° 21:43:44 10° 342° (NNW) 2,030 ? -15.6°
Maximum altitude 21:47:06 22° 293° (WNW) 1,399 ? -16.1°
Drops below altitude 10° 21:50:26 10° 243° (WSW) 2,012 ? -16.5°
Sets 21:53:01 0° 228° (SW) 2,912 ? -16.9°
